Location: East Arcadia
(34.1056°N, 118.0176°W)
Time: 23:20:54
(UTC+00:00)

Cosmos 1743 - Visible Passes

Search period start: 04 December 2023 00:00
Search period end: 14 December 2023 00:00
Orbit: 486 x 501 km, 82.5° (Epoch: 04 December)

Date Brightness Start Highest point End Pass type
(mag) Time Alt. Az. Time Alt. Az. Time Alt. Az.
11 Dec 4.9 02:25:41 14° SSE 02:25:41 14° SSE 02:26:19 10° SSE visible
12 Dec 3.2 01:59:36 27° NE 02:00:44 33° E 02:04:07 10° SE visible
12 Dec 6.0 03:34:30 10° WNW 03:35:34 11° W 03:36:39 10° WSW visible
12 Dec 5.8 14:06:14 10° ESE 14:08:00 13° E 14:09:47 10° ENE visible
13 Dec 3.8 01:35:48 10° NNE 01:38:45 22° ENE 01:41:41 10° SE visible
13 Dec 5.5 03:11:19 10° NW 03:13:47 17° W 03:16:15 10° SW visible
